Location: Morisset
(33.1080°S, 151.4871°E)
Time: 08:41:28
(UTC+00:00)

Lacrosse 5 - Pass Details

Date: 29 October 2020
Orbit: 716 x 723 km, 57.0° (Epoch: 06 November)

Event Time Altitude Azimuth Distance (km) Brightness Sun altitude
Exits shadow 15:36:57 29° 153° (SSE) 1,314 3.6 -35.2°
Drops below altitude 10° 15:39:30 10° 146° (SE) 2,236 5.2 -34.9°
Sets 15:41:55 0° 143° (SE) 3,163 6.2 -34.6°
